Location: Gleizolles
(44.4833°N, 6.7667°E)
Time: 13:27:06
(UTC+00:00)

Vanguard 1 - Pass Details

Date: 30 June 2024
Orbit: 650 x 3826 km, 34.3° (Epoch: 15 July)

Event Time Altitude Azimuth Distance (km) Brightness Sun altitude
Rises 13:07:00 0° 267° (W) 4,652 13.8 61.8°
Reaches altitude 10° 13:11:18 10° 255° (WSW) 3,158 13.2 61.2°
Maximum altitude 13:16:44 23° 206° (SSW) 1,809 12.3 60.4°
Drops below altitude 10° 13:20:44 10° 153° (SSE) 2,244 12.1 59.9°
Sets 13:23:12 0° 137° (SE) 3,025 12.6 59.5°
